www.pogodaiklimat.ru

Погода и климат >> Архив погоды >> Россия >> Ростовская область >> Ростов-на-Дону


АРХИВ ПОГОДЫ в Ростове-на-Дону

Время (UTC), дата Ветер
(напр.,м/с)
 
Видим.   Явления Облачность Т
(С)
Тd
(С)
f
(%)
Тe
(С)
Тes
(С)
Комфортность P
(гПа)
Po
(гПа)
Тmin
(С)
Tmax
(С)
R
(мм)
R24
(мм)
S
(см)
15 11.08 н/о ясно +25.5 +2.9 23 1020.4 1010.8 +26.6
18 11.08 н/о ясно +21.5 +3.8 31 1020.3 1010.7
21 11.08 н/о ясно +20.3 +3.6 33 1019.5 1009.8
00 12.08 н/о ясно +16.7 +5.0 46 1018.7 1009.0
03 12.08 н/о ясно +15.6 +5.9 52 1018.3 1008.6 +15.4
06 12.08 н/о 4/0 2000 м
[Ac trans]
+24.2 +6.2 31 1017.4 1007.8
09 12.08 н/о 6/0 2000 м
[Ac trans]
+27.5 +5.6 25 1016.2 1006.8
12 12.08 н/о 8/8 600 м
[Cb calv Ac trans]
+27.8 +4.2 22 1015.2 1005.8
15 12.08 н/о 8/0 2000 м
[Ac trans]
+25.7 +3.5 24 1014.8 1005.3 +28.4
18 12.08 н/о 8/5 600 м
[Cb calv Ac trans]
+21.7 +6.5 37 1015.3 1005.7
21 12.08 н/о 8/0 2000 м
[Ac trans]
+19.6 +6.4 42 1015.1 1005.4
00 13.08 н/о 6/0 2000 м
[Ac trans]
+18.2 +8.0 51 1015.0 1005.2
03 13.08 н/о 5/0 2000 м
[Ac trans]
+16.8 +10.7 67 1014.5 1004.7 +16.7
06 13.08 н/о 1/0 2000 м
[Ac trans]
+25.3 +9.7 37 1014.8 1005.3
09 13.08 н/о 1/0 2000 м
[Ac trans]
+29.4 +7.8 26 1014.2 1004.8
12 13.08 н/о 3/1 1000 м
[Cu hum Ac trans]
+30.4 +10.0 28 1012.9 1003.6
15 13.08 н/о 1/1 1000 м
[Cu hum]
+28.6 +10.0 31 1012.5 1003.1 +31.3
18 13.08 н/о ясно +22.6 +12.8 54 1013.8 1004.2
21 13.08 н/о 1/0 2000 м
[Ac trans]
+21.1 +12.3 57 1013.8 1004.2
00 14.08 н/о ясно +19.6 +12.0 61 1014.0 1004.3
03 14.08 н/о ясно +17.9 +13.2 74 1014.5 1004.7 +17.3
06 14.08 н/о ясно +28.3 +14.1 42 1014.8 1005.4
09 14.08 н/о 1/1 1000 м
[Cu hum]
+32.1 +8.8 24 1014.3 1005.0
12 14.08 н/о 5/5 1000 м
[Cu hum]
+30.9 +9.9 27 1013.4 1004.1
15 14.08 н/о ясно +30.1 +8.3 26 1013.2 1003.9 +33.2
18 14.08 н/о ясно +24.0 +8.9 38 1014.8 1005.3
21 14.08 н/о ясно +24.7 +9.7 39 1014.9 1005.4
00 15.08 н/о ясно +24.7 +9.7 39 1015.0 1005.4
03 15.08 н/о ясно +21.2 +10.5 50 1015.4 1005.8 +20.6
06 15.08 штиль 00 н/о 10/0 2000 м
[]
+26.1 +10.2 37 +27 +32 жарко 1015.4 1006.0
09 15.08 н/о ясно +31.5 +11.4 29 1015.2 1005.9
12 15.08 н/о 3/3 1000 м
[Cu hum]
+33.1 +8.3 22 1014.2 1005.0
15 15.08 н/о ясно +31.5 +9.2 25 1013.8 1004.5 +33.4
18 15.08 н/о ясно +28.2 +8.0 28 1014.7 1005.3
21 15.08 н/о +25.6 +7.5 32 +26 +26 жарко 1014.9 1005.4
00 16.08 н/о ясно +23.5 +7.6 36 1015.1 1005.5
03 16.08 н/о ясно +21.7 +7.9 41 1014.8 1005.2 +21.7
06 16.08 н/о 1/0 2000 м
[Ac trans]
+25.8 +10.8 39 1015.1 1005.6 +21.5
09 16.08 н/о ясно +31.2 +13.0 33 1014.3 1005.0
12 16.08 н/о 3/3 1000 м
[Cu hum]
+33.2 +10.0 24 1013.2 1003.9
15 16.08 н/о ясно +31.7 +9.8 26 1012.5 1003.2 +33.6
18 16.08 н/о ясно +28.5 +9.9 31 1013.2 1003.8
21 16.08 н/о ясно +26.1 +9.6 35 1013.3 1003.9
00 17.08 н/о ясно +22.7 +9.8 44 1013.7 1004.1
03 17.08 н/о ясно +19.8 +11.2 58 1014.4 1004.7 +19.5
06 17.08 н/о ясно +28.8 +10.2 31 1014.4 1005.0
09 17.08 н/о ясно +32.2 +9.0 24 1013.5 1004.2
12 17.08 н/о 3/3 600 м
[Cu hum]
+33.5 +7.9 21 1012.3 1003.0
15 17.08 н/о 3/3 600 м
[Cu hum]
+31.7 +7.9 23 1011.6 1002.3 +33.5
18 17.08 н/о ясно +26.8 +7.3 29 1012.4 1003.0
21 17.08 н/о ясно +26.6 +10.3 36 1012.9 1003.5
00 18.08 н/о ясно +23.4 +13.0 52 1013.3 1003.7
03 18.08 н/о ясно +21.5 +14.4 64 1013.8 1004.2 +21.5
06 18.08 н/о ясно +25.1 +15.5 55 1014.3 1004.8
09 18.08 н/о ясно +28.0 +14.0 42 1014.0 1004.6
12 18.08 н/о 3/3 1000 м
[Cu hum]
+29.7 +11.7 33 1013.5 1004.1

 

Местоположение метеостанции Ростов-на-Дону (Ростовская область, Россия): широта 47.27 долгота 39.82 высота над уровнем моря 75 м.

В архиве по умолчанию представлена погода в Ростове-на-Дону за последнюю неделю. Архивные данные за месяц целиком и за предыдущие месяцы, начиная с января 2011 года, Вы можете получить, выбрав интересующий диапазон дат из раскрывающегося списка и нажав кнопку "Ввод!".


*Определитесь, кто Вы:
робот инопланетянин человек

Внимание! Время в таблицах - всемирное. Для получения местного времени необходимо прибавить поправку, которая в Ростове-на-Дону равна 3 ч.

Смотрите также архив погоды в соседних городах и на ближайших метеорологических станциях:

Погода в Аэропорту Платов (Ростовская область, Россия) (26 км)
Погода в Шахтах (Ростовская область, Россия) (59 км)
Погода в Зерноград (Ростовская область, Россия) (60 км)
Погода в Таганроге (Ростовская область, Россия) (70 км)
Погода в Матвеевом Кургане (Ростовская область, Россия) (78 км)
Погода в Семикаракорске (Ростовская область, Россия) (81 км)
Погода в Маргаритово (Ростовская область, Россия) (81 км)
Погода в Кущевской (Краснодарский край, Россия) (84 км)
Погода в Константиновске (Ростовская область, Россия) (102 км)
Погода в Староминская (Краснодарский край, Россия) (102 км)

Пояснения к столбцам:

Ветер - указаны скорость ветра в м/с - средняя за 10 мин, порывы в срок и между сроками (в фигурных скобках) и направление, откуда дует ветер: С - северный, СВ - северо-восточный, В - восточный, ЮВ - юго-восточный, Ю - южный, ЮЗ - юго-западный, З - западный, СЗ - северо-западный.
Видимость - горизонтальная дальность видимости в метрах или километрах. При видимости от 1 до 10 км при отсутствии осадков обычно наблюдается дымка, при ухудшении видимости до 1 км и менее - туман. В сухую погоду видимость может ухудшаться дымом, пылью или мглою.
Явления - указаны атмосферные явления, наблюдавшиеся в срок или в последний час перед сроком; фигурными скобками обозначены явления, наблюдавшиеся между сроками (за 1-3 часа до срока); квадратными скобками обозначены град или гололедные отложения с указанием их диаметра в мм.
Облачность - указаны через наклонную черту общая и нижняя облачность в баллах и высота нижней границы облаков в метрах; квадратными скобками обозначены формы облаков: Ci - перистые, Cs - перисто-слоистые, Cc - перисто-кучевые, Ac - высококучевые, As - высокослоистые, Sc - слоисто-кучевые, Ns - слоисто-дождевые, Cu - кучевые, Cb - кучево-дождевые. Подробнее классификацию облаков см. в Атласе облаков (PDF).
T - Температура воздуха - температура, измеренная на высоте 2 м над землей.
Td - Температура точки росы - температура, при понижении до которой содержащийся в воздухе водяной пар достигнет насыщения.
f - Относительная влажность воздуха - влажноcть воздуха, измеренная на высоте 2 м над землей.
Te - Эффективная температура - температура, которую ощущает одетый по сезону человек в тени. Характеристика душности погоды. При расчете учитывается влияние влажности воздуха и скорости ветра на теплоощущения человека.
Tes - Эффективная температура на солнце - температура, которую ощущает человек, с поправкой на солнечный нагрев. Характеристика знойности погоды. Зависит от высоты солнца над горизонтом, облачности и скорости ветра. Ночью, в пасмурную погоду, а также при ветре 12 м/с и более поправка равна нулю.
P - Атмосферное давление - приведенное к уровню моря атмосферное давление.
Po - Атмосферное давление - измеренное на уровне метеостанции атмосферное давление.
Tmin - Минимальная температура - минимум температуры воздуха на высоте 2 м над землей.
Tmax - Максимальная температура - максимум температуры воздуха на высоте 2 м над землей.
R - Количество осадков - Количество выпавших осадков за период времени, мм. При наведении курсора мыши на число - период времени, за который выпало указанное количество осадков.
R24 - Количество осадков - Количество выпавших осадков за 24 часа, мм.
S - Снежный покров - Высота снежного покрова, см. При наведении курсора мыши на число - состояние снежного покрова и степень покрытия местности в баллах.